Theta_e
342 345 345 343 343 343 344 344 347 346 344 343 340 336 332 330 328 327 326 326 324 322 322 320 320 320 320 320 320 319 319 318 320 319 317 316 316 315 314 313 312 312 312
341 343 343 342 340 341 341 344 346 345 341 340 337 334 331 328 327 327 325 323 322 321 319 319 319 320 321 320 320 320 320 319 319 318 317 314 314 313 311 312 312 312 310
342 342 340 342 338 338 342 343 345 342 339 337 334 331 328 327 326 325 323 322 320 319 318 319 320 321 321 320 320 320 319 318 317 317 314 313 313 310 310 311 312 311 311
343 343 340 340 337 338 343 343 340 339 336 334 332 329 327 326 325 323 322 320 319 318 317 318 319 320 320 319 320 319 319 319 317 315 313 313 311 309 309 311 311 312 311
340 342 341 341 342 342 342 340 338 336 332 330 329 327 326 325 323 322 321 319 317 317 317 317 316 315 317 317 319 319 320 317 314 313 312 312 309 308 310 311 312 311 311
341 342 341 341 341 340 337 337 334 332 330 327 327 325 325 324 322 321 319 317 317 317 315 310 306 307 307 308 309 310 313 314 314 314 311 310 308 307 310 312 311 311 311
342 342 341 340 339 336 337 333 333 329 328 326 326 325 324 321 320 319 317 317 316 316 315 314 312 310 310 308 306 304 303 307 311 311 309 306 305 306 310 311 310 311 310
340 339 339 337 336 334 334 332 331 330 328 326 326 325 324 319 319 317 315 316 316 315 314 313 312 313 312 312 312 311 310 311 308 306 305 304 303 303 306 308 308 308 308
337 336 336 335 332 330 329 330 329 328 328 326 326 325 323 317 317 315 315 315 315 314 313 313 312 311 309 310 311 310 308 304 304 305 303 303 304 303 305 307 306 306 306
336 336 333 331 329 328 327 327 326 326 325 323 324 325 320 315 315 312 314 314 313 313 311 308 308 305 307 308 311 311 311 310 309 309 308 305 305 305 305 305 305 305 305
337 334 331 328 327 327 327 325 325 324 323 324 324 320 316 313 311 312 313 313 313 310 307 305 302 301 306 308 310 311 309 307 307 307 305 305 305 305 305 305 306 304 303
334 333 328 326 326 325 324 323 323 323 322 323 321 317 315 311 309 311 312 313 312 312 310 305 301 300 301 305 304 304 305 305 307 306 305 304 304 304 304 305 307 306 304
331 331 328 326 323 323 323 323 322 321 322 323 319 318 314 310 308 309 310 311 311 311 308 303 300 299 299 300 300 303 304 306 306 305 304 303 303 303 304 304 304 307 305
329 328 326 323 322 321 321 322 322 322 322 322 320 318 314 312 309 307 307 309 309 308 303 299 299 301 303 301 303 304 306 306 305 304 303 302 303 303 303 303 303 302 302
327 326 323 320 321 320 320 320 320 320 321 321 321 319 316 313 310 309 308 308 308 304 302 302 303 303 302 305 305 304 303 304 304 303 303 302 302 302 302 302 301 302 301
323 322 320 320 319 317 314 316 319 319 319 320 320 319 317 315 310 308 307 307 306 303 305 305 305 305 305 304 304 304 303 303 303 303 302 301 301 301 302 301 301 301 301
321 319 318 318 314 314 313 315 310 318 318 318 318 318 319 316 311 306 306 305 304 304 308 308 306 305 305 305 304 304 303 303 302 302 301 301 301 300 301 300 300 300 300
318 317 316 314 315 314 314 314 313 314 312 310 316 317 317 314 310 305 304 304 303 305 308 307 306 305 304 304 303 303 302 302 301 301 300 300 300 300 299 298 299 300 300
315 315 314 313 313 313 311 311 312 310 308 305 310 312 313 311 307 303 304 304 304 307 308 307 305 304 303 303 302 302 302 301 301 300 300 300 300 300 300 299 297 298 298
315 314 313 312 312 312 312 311 311 309 306 304 304 303 303 303 302 302 304 305 306 307 307 305 304 303 303 302 302 301 300 299 300 300 299 299 299 299 299 298 298 298 298
315 313 314 312 312 311 310 309 308 306 305 304 302 302 302 302 302 303 305 306 307 306 305 303 302 302 302 301 301 300 300 300 299 299 299 298 298 298 298 298 297 297 297
314 313 314 314 313 312 311 309 308 306 305 302 301 300 302 303 303 304 306 306 306 304 302 301 301 300 301 301 300 300 299 299 299 298 298 298 298 297 297 297 297 297 297
313 313 312 311 311 311 309 308 307 307 306 304 302 300 303 304 304 305 305 305 303 301 300 300 299 299 300 300 300 299 299 298 298 298 297 297 297 297 297 297 297 295 294
313 313 312 312 310 310 309 309 310 308 307 305 302 302 304 305 305 304 303 301 300 299 299 298 298 298 299 299 299 298 297 297 297 297 297 297 296 295 296 296 296 296 295
313 313 312 310 309 310 311 312 310 308 309 304 302 303 305 304 304 302 301 301 299 298 298 297 298 298 298 298 297 295 295 295 296 296 296 296 296 296 296 295 295 295 295
310 311 312 312 312 311 311 310 309 307 306 303 303 305 304 303 303 302 302 301 299 298 297 297 297 297 297 296 295 293 293 293 293 294 296 295 295 295 295 295 295 294 294
Wind_Speed
33 32 29 28 27 21 20 29 26 25 28 25 24 22 21 20 19 16 15 16 15 12 12 11 7 3 3 2 1 2 4 5 5 8 7 7 10 13 15 15 15 14 14
34 30 28 23 19 21 27 28 24 27 26 27 25 23 22 21 20 19 18 18 16 14 11 10 8 5 4 3 1 3 4 4 4 4 5 9 10 14 14 13 13 13 15
32 30 28 28 31 30 28 31 29 27 28 27 25 24 24 23 21 18 18 18 17 15 12 9 8 6 4 4 2 1 2 2 3 4 6 8 11 16 16 14 13 15 16
30 32 28 26 28 32 37 34 33 30 31 29 28 25 24 23 21 20 19 18 16 14 13 10 7 6 6 4 4 4 3 3 1 3 6 9 13 15 15 16 17 16 14
26 32 37 33 36 34 35 33 31 29 30 32 30 27 25 23 22 22 20 18 17 15 13 11 8 7 8 6 1 4 2 3 5 4 8 11 14 15 16 16 16 18 14
27 29 33 38 40 34 36 32 33 32 30 31 29 28 27 25 24 24 22 20 17 16 15 12 13 11 10 9 9 8 8 7 7 10 10 10 12 13 13 14 16 17 12
23 26 35 37 34 38 36 34 32 33 31 29 27 26 25 21 31 26 22 19 18 16 14 13 12 10 11 12 13 11 13 14 12 9 9 11 10 12 12 15 15 17 13
24 26 35 32 29 32 33 33 33 33 35 34 27 26 24 26 33 28 22 18 16 15 13 11 12 11 11 9 9 10 8 8 10 9 9 9 9 12 11 15 15 14 9
29 25 35 34 31 33 32 33 33 33 30 32 30 29 26 30 33 30 22 19 17 15 14 12 11 10 13 11 10 10 9 9 10 10 11 14 12 15 17 14 17 15 14
29 28 31 34 39 37 36 35 34 32 31 34 30 24 26 30 33 29 24 19 19 17 12 13 14 13 15 9 10 10 9 7 7 4 4 8 8 8 14 15 15 15 16
26 29 27 31 38 37 33 35 36 35 34 29 24 28 25 33 34 28 21 19 19 18 15 13 11 13 14 8 9 9 10 9 7 3 6 7 7 8 11 12 13 14 14
28 29 30 30 30 35 37 35 33 35 35 32 23 27 24 28 33 25 20 16 18 17 16 14 16 14 13 11 8 12 13 6 4 5 7 8 8 8 8 7 5 7 10
33 31 31 33 33 36 36 36 34 35 34 28 27 25 26 25 28 21 17 21 15 15 16 18 18 15 14 12 15 13 6 2 5 5 7 7 6 6 6 6 7 2 4
26 26 28 32 33 33 34 36 37 37 31 28 28 25 25 23 23 21 20 21 16 21 21 21 20 13 8 14 11 6 6 6 5 5 6 6 4 6 8 7 7 8 9
30 28 28 30 34 33 31 31 34 35 42 34 29 29 29 26 27 26 25 23 19 20 22 17 14 14 14 11 9 9 9 7 6 5 6 5 5 6 7 6 7 8 10
28 27 27 30 30 30 31 30 25 31 34 35 34 31 27 26 31 30 27 24 23 26 18 17 15 14 13 12 11 9 8 6 6 5 6 6 7 6 6 7 7 9 10
28 28 31 28 30 32 31 34 29 30 32 34 31 29 31 33 35 32 28 27 26 22 14 14 14 13 12 12 12 11 9 7 5 5 6 6 6 6 5 7 7 8 9
29 33 30 31 31 33 32 30 34 35 27 27 31 32 31 33 36 34 31 27 25 15 14 14 14 13 13 12 12 11 9 9 8 7 7 7 6 6 7 8 7 7 8
31 28 28 29 30 34 34 33 29 31 26 33 33 30 30 32 35 35 32 25 22 16 15 15 14 14 13 13 12 11 10 9 8 8 8 7 6 6 5 7 7 7 4
29 31 32 30 31 30 36 35 32 28 27 25 24 35 36 38 30 29 25 21 19 16 15 16 16 15 15 14 13 12 9 11 9 8 8 8 7 6 6 5 5 7 7
27 30 28 27 29 31 33 36 31 30 28 26 26 32 38 32 28 27 23 20 17 15 17 16 16 16 15 15 14 13 12 11 10 9 8 9 7 7 6 5 6 6 6
31 28 24 27 28 30 31 31 33 31 30 29 28 37 37 28 27 24 18 17 16 16 16 16 16 16 16 15 14 13 12 11 10 10 10 9 8 7 6 6 5 5 6
29 28 25 25 24 30 29 30 30 30 30 30 30 35 27 26 26 22 19 18 17 17 16 16 16 16 15 14 14 14 13 12 11 11 10 10 8 7 5 5 6 6 6
26 27 27 29 29 27 29 27 28 29 29 30 30 32 25 26 25 21 20 19 19 17 16 16 16 16 15 15 14 12 13 12 11 11 10 9 8 7 6 6 5 5 6
23 24 27 30 30 29 32 26 27 30 28 28 31 31 25 25 23 24 22 20 19 18 17 16 16 16 16 15 14 15 17 17 14 13 11 9 9 7 7 6 6 5 5
22 23 26 27 25 27 27 29 29 27 26 29 30 26 27 27 25 24 22 20 19 18 18 17 17 17 17 15 15 16 20 17 18 13 12 11 9 8 6 6 5 5 5
Wind_Direction
207 201 198 193 181 174 200 205 187 171 159 166 170 165 157 156 158 160 156 154 158 155 141 134 126 138 127 89 18 12 29 12 330 10 22 26 19 12 359 356 358 1 356
212 201 194 177 177 177 215 202 174 165 161 168 167 160 159 160 160 163 159 161 163 151 144 137 139 140 116 91 95 34 53 52 4 338 22 17 23 18 359 356 357 4 6
210 209 203 178 186 194 204 187 179 170 167 164 162 161 162 161 162 164 160 165 158 150 144 146 146 146 123 100 29 77 87 62 16 353 7 30 19 15 1 359 7 6 10
200 205 213 189 189 215 192 173 169 172 165 162 163 162 162 160 162 164 162 163 151 146 141 141 146 142 125 135 129 119 76 283 19 351 20 32 20 13 10 359 4 4 24
203 199 210 202 193 192 166 163 165 173 167 159 156 157 159 161 166 164 161 159 151 143 136 139 126 145 148 156 107 78 15 357 25 18 35 41 19 8 12 353 1 359 33
201 207 195 190 174 165 164 164 166 170 160 156 154 155 161 168 164 162 159 158 150 145 140 129 119 119 117 117 106 98 89 63 63 19 49 42 28 8 3 354 2 354 3
206 195 186 176 158 164 165 163 166 158 153 154 151 157 164 157 160 158 158 154 149 147 147 142 144 136 124 121 106 95 89 82 79 60 56 43 32 9 360 350 353 337 27
196 191 174 160 160 160 161 163 162 159 155 151 156 158 153 152 160 158 155 150 146 142 144 142 134 148 151 149 136 118 98 89 77 74 62 56 40 24 4 336 338 349 38
207 188 158 159 160 159 161 162 151 150 153 150 154 163 145 156 162 159 153 149 144 139 133 131 142 154 159 145 143 134 123 117 95 64 60 56 46 34 32 16 9 12 10
213 185 168 166 159 162 162 156 148 151 145 148 148 154 150 158 162 159 156 152 145 142 129 128 143 147 155 156 157 153 132 113 112 113 58 42 44 36 43 33 17 20 15
211 167 167 162 157 156 154 145 152 147 138 139 145 142 154 166 161 163 158 159 156 148 141 141 142 146 156 150 147 149 130 123 138 118 77 64 47 48 41 37 32 40 26
165 158 157 157 152 147 146 147 147 141 139 143 141 137 159 167 164 164 166 169 163 153 150 145 146 146 148 153 135 136 141 158 142 103 80 60 51 38 44 42 49 44 60
154 156 152 150 147 149 144 146 144 145 148 149 142 153 154 163 166 169 169 162 165 154 145 150 145 140 138 136 134 130 131 172 114 102 84 71 63 57 33 46 53 101 104
150 149 145 142 145 147 146 150 147 146 151 150 154 153 153 155 166 168 161 158 159 139 144 143 137 142 149 140 130 113 116 105 98 99 88 78 73 65 52 36 40 37 38
147 150 150 151 148 148 149 153 153 157 158 160 156 154 156 165 175 172 165 162 155 153 145 146 153 155 160 158 148 133 129 133 119 109 95 89 74 77 65 50 42 44 48
145 145 150 151 146 145 138 135 150 159 163 155 154 159 166 172 173 170 165 167 167 156 155 159 170 166 163 156 151 141 131 130 124 118 97 78 69 56 58 55 53 50 51
146 149 148 151 147 147 146 142 128 142 153 153 163 170 179 172 171 170 168 169 169 161 170 169 170 171 164 158 156 152 141 134 129 111 99 90 93 88 68 55 49 51 57
151 153 152 151 155 149 150 151 148 143 140 129 161 162 162 165 170 171 167 161 168 190 182 172 172 164 164 163 157 149 150 151 146 134 113 105 94 85 82 64 57 42 61
148 151 150 153 153 150 145 143 146 144 141 132 138 147 159 166 171 170 166 162 171 183 181 177 169 165 166 164 156 154 162 151 150 141 123 114 109 107 86 102 98 69 58
153 152 150 153 153 153 149 148 148 150 144 143 146 144 155 157 159 165 171 173 180 182 178 175 169 167 166 163 158 159 153 154 156 144 130 120 114 109 106 92 73 77 65
149 150 150 153 157 157 157 151 151 151 148 150 147 153 158 158 157 168 176 183 180 179 178 168 168 167 169 164 163 166 169 162 159 146 139 124 125 120 113 104 99 85 62
141 142 157 161 164 163 161 148 150 149 145 144 146 155 154 152 158 170 181 175 177 179 171 167 171 172 170 167 169 168 165 164 159 149 140 134 129 128 132 125 107 85 74
140 155 153 150 152 151 146 144 144 148 144 146 149 156 159 155 159 171 172 175 167 164 166 172 170 173 167 165 169 170 168 163 160 154 145 138 137 136 139 126 111 90 77
150 152 152 151 144 143 136 145 151 153 152 150 153 157 158 158 165 164 162 164 164 167 170 170 173 168 165 166 167 169 156 156 154 151 145 136 131 144 139 132 116 109 113
144 147 149 146 144 145 148 156 152 158 158 150 155 156 158 155 161 162 164 164 165 169 168 167 167 166 168 169 166 159 160 155 148 146 143 139 138 148 145 139 127 108 88
119 129 136 141 139 148 145 152 155 153 147 149 154 155 154 160 164 164 165 167 170 168 165 164 165 166 167 167 164 165 166 156 148 137 136 138 146 150 146 135 132 112 98